DW8500 Weather Reports


Display with metric or nautical units.
time (UTC)temp
F
wind
direction
speed
MPH
gust
MPH
rain 1hr
in
rain 24hr
in
rain mn
in
humidity
%
barometer
mb
20260509184211 46 108 0.0 1.0 0.07 0.36 0.36 64 1013.1
20260509183713 46 108 0.0 1.0 0.07 0.36 0.36 64 1013.3
20260509183212 45 85 0.0 1.0 0.08 0.36 0.36 64 1013.2
20260509182713 45 86 0.0 1.0 0.08 0.35 0.35 64 1013.4
20260509182212 45 86 0.0 1.0 0.09 0.35 0.35 64 1013.5
20260509181706 45 86 0.0 1.0 0.10 0.35 0.35 64 1013.5
20260509181224 45 65 0.0 1.0 0.10 0.34 0.34 63 1013.7
20260509180724 45 65 0.0 0.0 0.10 0.33 0.33 63 1013.7
20260509180222 45 65 0.0 1.0 0.10 0.32 0.32 63 1013.9
20260509180134 44 65 0.0 1.0 0.10 0.32 0.32 63 1014.1
20260509175720 45 65 0.0 1.0 0.10 0.31 0.31 63 1013.8
20260509175217 45 65 0.0 0.0 0.10 0.31 0.31 63 1013.8
20260509174737 45 65 0.0 0.0 0.10 0.30 0.30 63 1013.8
20260509174234 45 65 0.0 1.0 0.10 0.29 0.29 63 1013.8
20260509173731 45 65 0.0 1.0 0.11 0.29 0.29 63 1013.8
20260509173206 45 65 0.0 1.0 0.11 0.28 0.28 63 1014.0
20260509172709 45 65 0.0 1.0 0.11 0.27 0.27 62 1014.0
20260509172207 45 65 0.0 1.0 0.10 0.26 0.26 62 1014.2
20260509171745 45 65 0.0 0.0 0.10 0.25 0.25 63 1014.3
20260509171637 44 65 0.0 0.0 0.00 0.00 0.25 63 1014.6
20260509171220 45 65 0.0 0.0 0.09 0.24 0.24 62 1014.1
20260509170718 45 65 0.0 1.0 0.09 0.23 0.23 61 1014.2
20260509170214 45 65 0.0 1.0 0.08 0.22 0.22 61 1014.4
20260509170131 44 65 0.0 0.0 0.08 0.22 0.22 61 1014.6
20260509165714 44 65 0.0 1.0 0.08 0.21 0.21 61 1014.4
20260509165233 44 65 0.0 1.0 0.08 0.21 0.21 61 1014.4
20260509164709 44 65 0.0 1.0 0.08 0.20 0.20 61 1014.5
20260509164205 44 65 0.0 0.0 0.08 0.19 0.19 61 1014.5
20260509163705 44 65 0.0 0.0 0.07 0.18 0.18 61 1014.5
20260509163222 44 65 0.0 0.0 0.06 0.17 0.17 61 1014.4
20260509163133 44 65 0.0 0.0 0.06 0.17 0.17 61 1014.6
20260509162719 44 65 0.0 1.0 0.06 0.16 0.16 61 1014.1
20260509162215 44 49 0.0 1.0 0.06 0.16 0.16 60 1014.0
20260509161714 44 49 0.0 1.0 0.05 0.15 0.15 61 1014.2
20260509161213 44 49 0.0 1.0 0.06 0.15 0.15 61 1014.1
20260509160715 44 49 0.0 1.0 0.05 0.14 0.14 61 1014.2
20260509160212 44 49 0.0 1.0 0.05 0.14 0.14 61 1014.3
20260509155712 44 49 0.0 1.0 0.05 0.13 0.13 61 1014.5
20260509155211 44 49 0.0 1.0 0.04 0.12 0.12 61 1014.5
20260509154707 44 49 0.0 1.0 0.04 0.12 0.12 61 1014.7
20260509154205 44 49 0.0 1.0 0.03 0.11 0.11 61 1014.7
20260509153705 44 49 0.0 0.0 0.03 0.11 0.11 61 1014.8
20260509153205 44 49 0.0 1.0 0.04 0.11 0.11 61 1015.0
20260509152704 44 49 0.0 1.0 0.03 0.10 0.10 61 1015.0
20260509152223 44 46 0.0 1.0 0.03 0.10 0.10 61 1014.8
20260509151702 44 46 0.0 1.0 0.04 0.10 0.10 60 1015.0
20260509151221 44 46 0.0 1.0 0.03 0.09 0.09 60 1015.1
20260509150721 44 124 0.0 1.0 0.03 0.09 0.09 60 1015.0
20260509150218 44 124 0.0 1.0 0.04 0.09 0.09 60 1015.1
20260509150131 43 124 0.0 1.0 0.04 0.09 0.09 60 1015.3
20260509145718 44 125 0.0 0.0 0.03 0.08 0.08 60 1015.0
20260509145213 44 124 0.0 1.0 0.03 0.08 0.08 60 1015.1
20260509144732 43 124 0.0 1.0 0.03 0.08 0.08 60 1015.1
20260509144209 43 124 0.0 1.0 0.04 0.08 0.08 60 1015.0
20260509143707 43 124 0.0 0.0 0.03 0.07 0.07 60 1015.1
20260509143204 43 124 0.0 1.0 0.03 0.07 0.07 58 1015.2
20260509142724 43 124 0.0 1.0 0.04 0.07 0.07 57 1015.1
20260509142220 42 124 0.0 1.0 0.03 0.06 0.06 57 1015.0
20260509141718 42 124 0.0 1.0 0.03 0.06 0.06 57 1015.1
20260509141632 42 124 0.0 1.0 0.03 0.06 0.06 57 1015.3
20260509141214 42 125 0.0 1.0 0.03 0.06 0.06 57 1015.0
20260509140713 42 125 0.0 1.0 0.03 0.06 0.06 56 1015.0
20260509140211 42 125 0.0 1.0 0.03 0.05 0.05 57 1015.0
20260509135728 42 125 0.0 1.0 0.03 0.05 0.05 57 1014.9
20260509135206 42 126 0.0 0.0 0.03 0.05 0.05 57 1015.0
20260509134706 42 125 0.0 0.0 0.04 0.05 0.05 57 1014.9
20260509134205 42 125 0.0 1.0 0.03 0.04 0.04 58 1014.9
20260509133705 42 126 0.0 1.0 0.03 0.04 0.04 58 1014.8
20260509133224 43 125 0.0 1.0 0.03 0.04 0.04 59 1014.7
20260509132704 43 125 0.0 1.0 0.03 0.03 0.03 59 1014.7
20260509132221 42 125 0.0 1.0 0.03 0.03 0.03 58 1014.6
20260509131740 42 125 0.0 1.0 0.03 0.03 0.03 58 1014.6
20260509131633 41 125 0.0 1.0 0.03 0.03 0.03 58 1014.9
20260509131212 42 125 0.0 1.0 0.03 0.03 0.03 58 1014.4
20260509130710 42 125 0.0 0.0 0.02 0.02 0.02 58 1014.4
20260509130228 41 125 0.0 0.0 0.02 0.02 0.02 58 1014.4
20260509125708 41 125 0.0 1.0 0.02 0.02 0.02 60 1014.5
20260509125206 41 125 0.0 1.0 0.02 0.02 0.02 60 1014.6
20260509124726 41 125 0.0 0.0 0.01 0.01 0.01 60 1014.7
20260509124223 41 125 0.0 0.0 0.01 0.01 0.01 60 1014.8
20260509123742 41 125 0.0 0.0 0.01 0.01 0.01 60 1014.8
20260509123217 41 125 0.0 1.0 0.01 0.01 0.01 60 1015.0
20260509123135 41 125 0.0 1.0 0.01 0.01 0.01 60 1015.2
20260509122713 41 125 0.0 1.0 0.00 0.00 0.00 61 1015.0
20260509122210 41 125 0.0 1.0 0.00 0.00 0.00 62 1015.0
20260509121712 42 125 0.0 1.0 0.00 0.00 0.00 62 1015.0
20260509120720 42 127 0.0 1.0 0.00 0.00 0.00 61 1015.2
20260509120216 42 125 0.0 1.0 0.00 0.00 0.00 61 1015.0
20260509120132 42 124 0.0 1.0 0.00 0.00 0.00 60 1015.3
20260509115735 42 197 0.0 0.0 0.00 0.00 0.00 59 1014.9
20260509115213 42 197 0.0 0.0 0.00 0.00 0.00 57 1015.0
20260509114711 42 197 0.0 0.0 0.00 0.00 0.00 57 1015.0
20260509114210 42 197 0.0 0.0 0.00 0.00 0.00 57 1014.9
20260509113221 41 197 0.0 1.0 0.00 0.00 0.00 58 1014.8
20260509113136 40 197 0.0 1.0 0.00 0.00 0.00 58 1015.1
20260509112717 41 197 0.0 1.0 0.00 0.00 0.00 58 1014.8
20260509112211 41 208 0.0 0.0 0.00 0.00 0.00 58 1014.8
20260509111709 40 207 0.0 0.0 0.00 0.00 0.00 58 1014.8
20260509111227 40 207 0.0 1.0 0.00 0.00 0.00 58 1014.8
20260509110706 40 207 0.0 1.0 0.00 0.00 0.00 58 1014.8
20260509110204 39 207 0.0 0.0 0.00 0.00 0.00 59 1014.9
20260509105704 39 207 0.0 0.0 0.00 0.00 0.00 59 1014.8
20260509105203 38 207 0.0 0.0 0.00 0.00 0.00 59 1014.9
20260509104704 38 207 0.0 0.0 0.00 0.00 0.00 59 1014.9
20260509104203 38 207 0.0 0.0 0.00 0.00 0.00 59 1015.0
20260509103722 38 207 0.0 0.0 0.00 0.00 0.00 59 1014.8
20260509103213 38 207 0.0 1.0 0.00 0.00 0.00 59 1014.8
20260509103132 37 207 0.0 1.0 0.00 0.00 0.00 59 1015.1
20260509102712 37 207 0.0 1.0 0.00 0.00 0.00 59 1014.7
20260509102211 37 207 0.0 0.0 0.00 0.00 0.00 60 1014.9
20260509101711 37 207 0.0 0.0 0.00 0.00 0.00 60 1014.8
20260509101210 37 207 0.0 0.0 0.00 0.00 0.00 59 1014.8
20260509100710 37 207 0.0 0.0 0.00 0.00 0.00 59 1014.7
20260509100206 36 207 0.0 0.0 0.00 0.00 0.00 59 1014.7
20260509095706 36 207 0.0 0.0 0.00 0.00 0.00 60 1014.5
20260509095204 36 208 0.0 0.0 0.00 0.00 0.00 60 1014.6
20260509094705 36 207 0.0 0.0 0.00 0.00 0.00 60 1014.6
20260509094203 35 207 0.0 0.0 0.00 0.00 0.00 60 1014.5
20260509093704 35 207 0.0 1.0 0.00 0.00 0.00 60 1014.4
20260509093202 35 207 0.0 1.0 0.00 0.00 0.00 61 1014.4
20260509092736 35 207 0.0 0.0 0.00 0.00 0.00 61 1014.5
20260509092212 35 207 0.0 0.0 0.00 0.00 0.00 61 1014.2
20260509091711 35 207 0.0 1.0 0.00 0.00 0.00 61 1014.1
20260509091635 34 207 0.0 1.0 0.00 0.00 0.00 61 1014.5
20260509091210 35 207 0.0 1.0 0.00 0.00 0.00 61 1014.2
20260509090202 35 207 0.0 1.0 0.00 0.00 0.00 61 1014.3
20260509085702 35 207 0.0 1.0 0.00 0.00 0.00 61 1014.2
20260509084702 34 207 0.0 0.0 0.00 0.00 0.00 62 1014.3
20260509084241 34 207 0.0 0.0 0.00 0.00 0.00 63 1013.9
20260509083716 35 207 0.0 0.0 0.00 0.00 0.00 63 1013.7
20260509083214 35 207 0.0 0.0 0.00 0.00 0.00 63 1013.7
20260509083133 34 208 0.0 0.0 0.00 0.00 0.00 63 1013.9
20260509082713 35 207 0.0 0.0 0.00 0.00 0.00 63 1013.7
20260509081702 35 207 0.0 0.0 0.00 0.00 0.00 63 1013.7
20260509081220 35 207 0.0 0.0 0.00 0.00 0.00 63 1013.8
20260509080721 35 207 0.0 0.0 0.00 0.00 0.00 64 1013.8
20260509080218 35 207 0.0 0.0 0.00 0.00 0.00 64 1013.7
20260509080143 35 207 0.0 0.0 0.00 0.00 0.00 64 1013.9
20260509075716 36 207 0.0 0.0 0.00 0.00 0.00 64 1013.6
20260509075233 36 207 0.0 0.0 0.00 0.00 0.00 64 1013.6
20260509074708 36 207 0.0 1.0 0.00 0.00 0.00 64 1013.7
20260509074207 36 207 0.0 1.0 0.00 0.00 0.00 64 1013.6
20260509073702 37 208 0.0 1.0 0.00 0.00 0.00 62 1013.7
20260509073241 37 207 0.0 1.0 0.00 0.00 0.00 62 1013.7
20260509073217 37 207 0.0 1.0 0.00 0.00 0.00 62 1013.9
20260509072739 38 207 0.0 1.0 0.00 0.00 0.00 62 1013.6
20260509072216 38 146 0.0 2.0 0.00 0.00 0.00 62 1013.7
20260509071713 38 233 0.0 2.0 0.00 0.00 0.00 63 1013.7
20260509071211 38 236 0.0 1.0 0.00 0.00 0.00 63 1013.7
20260509070712 38 236 0.0 1.0 0.00 0.00 0.00 63 1013.5
20260509070209 38 252 0.0 1.0 0.00 0.00 0.00 63 1013.6
20260509065710 38 252 0.0 0.0 0.00 0.00 0.00 62 1013.7
20260509065209 38 252 0.0 0.0 0.00 0.00 0.00 61 1013.5
20260509064704 39 252 0.0 0.0 0.00 0.00 0.00 60 1013.6
20260509064204 39 252 0.0 0.0 0.00 0.00 0.00 60 1013.6
20260509063703 39 252 0.0 0.0 0.00 0.00 0.00 61 1013.6
20260509063203 39 252 0.0 0.0 0.00 0.00 0.00 61 1013.7
20260509062702 39 252 0.0 0.0 0.00 0.00 0.00 61 1013.8
20260509062219 39 252 0.0 0.0 0.00 0.00 0.00 61 1013.7
20260509061718 39 252 0.0 0.0 0.00 0.00 0.00 60 1013.8
20260509061629 39 252 0.0 0.0 0.00 0.00 0.00 60 1014.1
20260509061213 40 252 0.0 1.0 0.00 0.00 0.00 60 1013.7
20260509060712 40 252 0.0 1.0 0.00 0.00 0.00 60 1013.8
20260509060211 40 252 0.0 1.0 0.00 0.00 0.00 59 1013.8
20260509055712 40 252 0.0 1.0 0.00 0.00 0.00 59 1013.9
20260509055227 40 252 0.0 1.0 0.00 0.00 0.00 59 1013.9
20260509054705 40 256 0.0 1.0 0.00 0.00 0.00 59 1013.9
20260509054202 40 262 0.0 1.0 0.00 0.00 0.00 59 1014.0
20260509053704 40 262 0.0 1.0 0.00 0.00 0.00 59 1014.0
20260509053201 40 262 0.0 1.0 0.00 0.00 0.00 58 1014.0
20260509052704 40 262 0.0 1.0 0.00 0.00 0.00 58 1013.8
20260509052203 40 269 0.0 1.0 0.00 0.00 0.00 59 1013.7
20260509051703 40 269 0.0 1.0 0.00 0.00 0.00 59 1013.6
20260509051203 40 269 0.0 1.0 0.00 0.00 0.00 60 1013.5
20260509050702 40 269 0.0 1.0 0.00 0.00 0.00 60 1013.5
20260509050222 40 269 0.0 1.0 0.00 0.00 0.00 59 1013.7
20260509050133 39 269 0.0 1.0 0.00 0.00 0.00 59 1013.9
20260509045700 40 269 0.0 1.0 0.00 0.00 0.00 60 1013.6
20260509045216 40 269 0.0 1.0 0.00 0.00 0.00 59 1013.6
20260509044714 40 269 0.0 1.0 0.00 0.00 0.00 59 1013.7
20260509044635 40 269 0.0 1.0 0.00 0.00 0.00 59 1013.8
20260509044233 41 269 0.0 1.0 0.00 0.00 0.00 58 1013.6
20260509043711 41 269 0.0 1.0 0.00 0.00 0.00 57 1013.6
20260509043209 41 269 0.0 1.0 0.00 0.00 0.00 56 1013.7
20260509042710 41 269 0.0 1.0 0.00 0.00 0.00 56 1013.7
20260509042205 41 269 0.0 1.0 0.00 0.00 0.00 56 1013.6
20260509041704 41 264 0.0 0.0 0.00 0.00 0.00 57 1013.5
20260509041203 41 264 0.0 0.0 0.00 0.00 0.00 57 1013.6
20260509040705 41 264 0.0 0.0 0.00 0.00 0.00 56 1013.6
20260509040218 41 264 0.0 1.0 0.00 0.00 0.00 56 1013.5
20260509040136 41 264 0.0 1.0 0.00 0.00 0.00 56 1013.7
20260509035737 42 264 0.0 1.0 0.00 0.00 0.00 55 1013.4
20260509035214 42 264 0.0 1.0 0.00 0.00 0.00 55 1013.5
20260509034713 42 264 0.0 1.0 0.00 0.00 0.00 54 1013.5
20260509034210 43 264 0.0 2.0 0.00 0.00 0.00 53 1013.5
20260509033711 43 264 0.0 3.0 0.00 0.00 0.00 54 1013.4
20260509033231 42 245 1.0 3.0 0.00 0.00 0.00 55 1013.4
20260509032709 42 253 0.0 1.0 0.00 0.00 0.00 56 1013.4
20260509032208 42 303 0.0 1.0 0.00 0.00 0.00 55 1013.3
20260509031705 42 303 0.0 1.0 0.00 0.00 0.00 55 1013.2
20260509031239 42 281 0.0 1.0 0.00 0.00 0.00 55 1013.1
20260509030718 42 277 0.0 1.0 0.00 0.00 0.00 56 1013.2
20260509030235 42 277 0.0 1.0 0.00 0.00 0.00 55 1013.0
20260509030127 42 277 0.0 1.0 0.00 0.00 0.00 55 1013.2
20260509025712 42 277 0.0 1.0 0.00 0.00 0.00 54 1013.0
20260509025211 43 277 0.0 1.0 0.00 0.00 0.00 54 1013.0
20260509024711 43 277 0.0 1.0 0.00 0.00 0.00 53 1013.0
20260509024210 43 277 0.0 1.0 0.00 0.00 0.00 53 1013.0
20260509023712 43 277 0.0 1.0 0.00 0.00 0.00 54 1012.9
20260509023231 43 277 0.0 1.0 0.00 0.00 0.00 53 1013.0
20260509022706 44 277 0.0 1.0 0.00 0.00 0.00 52 1012.9
20260509022223 44 277 0.0 1.0 0.00 0.00 0.00 51 1013.0
20260509021704 44 277 0.0 0.0 0.00 0.00 0.00 51 1012.9
20260509021203 44 277 0.0 1.0 0.00 0.00 0.00 51 1013.0
20260509020703 45 277 0.0 1.0 0.00 0.00 0.00 51 1012.8
20260509020200 45 212 0.0 1.0 0.00 0.00 0.00 51 1012.7
20260509015702 45 212 0.0 1.0 0.00 0.00 0.00 50 1012.7
20260509015220 45 212 0.0 0.0 0.00 0.00 0.00 49 1012.6
20260509014700 46 257 0.0 1.0 0.00 0.00 0.00 48 1012.5
20260509014217 46 257 0.0 1.0 0.00 0.00 0.00 47 1012.3
20260509013718 46 265 0.0 2.0 0.00 0.00 0.00 47 1012.3
20260509013209 46 265 0.0 2.0 0.00 0.00 0.00 47 1012.1
20260509012725 46 214 0.0 1.0 0.00 0.00 0.00 46 1012.2
20260509012207 47 214 0.0 1.0 0.00 0.00 0.00 45 1012.1
20260509011706 47 237 0.0 1.0 0.00 0.00 0.00 44 1012.0
20260509011225 47 264 0.0 1.0 0.00 0.00 0.00 44 1011.9
20260509010706 48 307 0.0 1.0 0.00 0.00 0.00 43 1011.8
20260509010205 48 240 0.0 1.0 0.00 0.00 0.00 43 1011.9
20260509005706 48 296 0.0 1.0 0.00 0.00 0.00 42 1011.7
20260509005224 49 258 0.0 3.0 0.00 0.00 0.00 41 1011.6
20260509004740 49 265 0.0 4.0 0.00 0.00 0.00 40 1011.4
20260509004637 49 265 0.0 4.0 0.00 0.00 0.00 40 1011.6
20260509004216 49 104 1.0 3.0 0.00 0.00 0.00 40 1011.3
20260509003715 49 270 1.0 4.0 0.00 0.00 0.00 40 1011.3
20260509003211 50 309 1.0 4.0 0.00 0.00 0.00 39 1011.4
20260509003124 49 254 0.0 4.0 0.00 0.00 0.00 39 1011.7
20260509002711 50 272 2.0 5.0 0.00 0.00 0.00 39 1011.2
20260509002229 50 359 1.0 5.0 0.00 0.00 0.00 38 1011.2
20260509001727 50 275 1.0 4.0 0.00 0.00 0.00 38 1011.2
20260509001203 50 255 1.0 4.0 0.00 0.00 0.00 37 1011.1
20260509000704 51 16 1.0 6.0 0.00 0.00 0.00 37 1011.0
20260509000204 51 240 1.0 6.0 0.00 0.00 0.00 36 1010.9
20260508235718 51 17 1.0 6.0 0.00 0.00 0.00 36 1011.0
20260508235234 51 255 2.0 6.0 0.00 0.00 0.00 35 1010.9
20260508234712 52 309 2.0 5.0 0.00 0.00 0.00 34 1010.8
20260508234633 51 290 1.0 5.0 0.00 0.00 0.00 34 1010.9
20260508234208 52 231 1.0 3.0 0.00 0.00 0.00 35 1010.6
20260508233707 52 45 1.0 9.0 0.00 0.00 0.00 34 1010.5
20260508233206 52 329 1.0 9.0 0.00 0.00 0.00 33 1010.5
20260508232725 53 286 3.0 6.0 0.00 0.00 0.00 33 1010.4
20260508232203 53 248 2.0 8.0 0.00 0.00 0.00 33 1010.3
20260508231702 53 297 2.0 8.0 0.00 0.00 0.00 33 1010.3
20260508231200 54 288 2.0 7.0 0.00 0.00 0.00 32 1010.2
20260508230716 54 326 3.0 7.0 0.00 0.00 0.00 32 1010.2
20260508230233 54 270 2.0 9.0 0.00 0.00 0.00 31 1010.2
20260508230128 53 264 1.0 9.0 0.00 0.00 0.00 31 1010.3
20260508225711 54 232 4.0 9.0 0.00 0.00 0.00 31 1010.2
20260508225229 54 285 3.0 8.0 0.00 0.00 0.00 29 1010.0
20260508224710 55 229 3.0 10.0 0.00 0.00 0.00 28 1009.9
20260508224227 55 285 2.0 9.0 0.00 0.00 0.00 27 1009.8
20260508223708 55 312 1.0 7.0 0.00 0.00 0.00 27 1009.9
20260508223206 55 312 1.0 4.0 0.00 0.00 0.00 28 1009.8
20260508222706 55 276 2.0 6.0 0.00 0.00 0.00 26 1009.8
20260508222219 56 294 3.0 10.0 0.00 0.00 0.00 26 1009.8
20260508221720 56 314 2.0 11.0 0.00 0.00 0.00 26 1009.7
20260508221637 55 281 1.0 11.0 0.00 0.00 0.00 27 1009.9
20260508221216 57 305 1.0 5.0 0.00 0.00 0.00 27 1009.6
20260508220716 57 312 1.0 3.0 0.00 0.00 0.00 27 1009.6
20260508220234 56 209 1.0 4.0 0.00 0.00 0.00 27 1009.5
20260508215710 56 276 1.0 4.0 0.00 0.00 0.00 28 1009.4
20260508215208 56 328 0.0 3.0 0.00 0.00 0.00 26 1009.4
20260508214728 56 262 1.0 3.0 0.00 0.00 0.00 26 1009.3
20260508214206 56 321 1.0 2.0 0.00 0.00 0.00 26 1009.2
20260508213707 57 37 1.0 5.0 0.00 0.00 0.00 25 1009.2
20260508213220 57 259 1.0 6.0 0.00 0.00 0.00 25 1009.3
20260508212701 57 340 2.0 6.0 0.00 0.00 0.00 24 1009.2
20260508212201 57 236 2.0 6.0 0.00 0.00 0.00 24 1009.2
20260508211702 57 252 3.0 6.0 0.00 0.00 0.00 25 1009.3
20260508211221 57 37 2.0 7.0 0.00 0.00 0.00 24 1009.2
20260508210659 58 313 2.0 7.0 0.00 0.00 0.00 23 1009.1
20260508210219 58 247 1.0 8.0 0.00 0.00 0.00 24 1009.2
20260508210135 58 287 1.0 8.0 0.00 0.00 0.00 24 1009.3
20260508205717 58 56 2.0 8.0 0.00 0.00 0.00 22 1009.2
20260508205215 58 268 4.0 10.0 0.00 0.00 0.00 21 1009.1
20260508204715 58 288 3.0 8.0 0.00 0.00 0.00 22 1009.1
20260508204629 58 323 2.0 8.0 0.00 0.00 0.00 22 1009.2
20260508204228 58 251 2.0 8.0 0.00 0.00 0.00 23 1009.1
20260508203725 58 352 2.0 8.0 0.00 0.00 0.00 21 1009.0
20260508203202 59 310 2.0 10.0 0.00 0.00 0.00 22 1009.0
20260508202703 59 163 3.0 10.0 0.00 0.00 0.00 20 1008.8
20260508202222 60 8 3.0 10.0 0.00 0.00 0.00 21 1008.8
20260508201702 60 291 4.0 10.0 0.00 0.00 0.00 20 1008.7
20260508201201 60 301 3.0 8.0 0.00 0.00 0.00 19 1008.7
20260508200702 59 263 2.0 8.0 0.00 0.00 0.00 22 1008.7
20260508200200 59 114 3.0 8.0 0.00 0.00 0.00 21 1008.8
20260508195714 58 195 2.0 11.0 0.00 0.00 0.00 21 1008.7
20260508195212 58 221 5.0 11.0 0.00 0.00 0.00 22 1008.7
20260508194711 59 72 6.0 11.0 0.00 0.00 0.00 20 1008.7
20260508194627 58 229 5.0 11.0 0.00 0.00 0.00 20 1008.8
20260508194207 59 186 4.0 11.0 0.00 0.00 0.00 20 1008.8
20260508193707 59 278 3.0 11.0 0.00 0.00 0.00 21 1008.8
20260508193204 59 276 3.0 7.0 0.00 0.00 0.00 23 1008.8
20260508192705 59 281 2.0 10.0 0.00 0.00 0.00 24 1008.9
20260508192201 57 330 2.0 10.0 0.00 0.00 0.00 22 1008.8
20260508191702 57 260 2.0 6.0 0.00 0.00 0.00 22 1008.8
20260508191159 57 280 3.0 8.0 0.00 0.00 0.00 22 1008.9
20260508190700 57 259 3.0 8.0 0.00 0.00 0.00 24 1008.9
20260508190218 57 270 2.0 10.0 0.00 0.00 0.00 23 1009.0
20260508190130 56 287 2.0 10.0 0.00 0.00 0.00 23 1009.0
20260508185659 57 256 3.0 10.0 0.00 0.00 0.00 22 1009.0
20260508185212 57 1 4.0 10.0 0.00 0.00 0.00 22 1008.9
20260508184711 57 44 3.0 14.0 0.00 0.00 0.00 21 1008.9
20260508184651 56 326 2.0 14.0 0.00 0.00 0.00 21 1009.2